Regional Weather Roundup
Issued by NWS Midland/Odessa, TX

Skip options and go directly to product.
Home | Oldest Version | Previous Version | Current Version | All | Text Only | Save Text | Print | Product List | Glossary On

Skip product version selection by date and time.   
839
ASUS44 KMAF 061310
RWRMAF
MIDLAND AREA WEATHER ROUNDUP
NATIONAL WEATHER SERVICE MIDLAND TX
700 AM CST SAT FEB 06 2016

...IN SOUTHWEST TEXAS AND SOUTHEAST NEW MEXICO...

CITY           SKY/WX    TMP DP  RH WIND       PRES   REMARKS
ALPINE         CLOUDY    26  13  55 SW9       30.49S WCI  17
ANDREWS        FAIR      25  16  69 NW3       30.41F
ARTESIA        CLOUDY    21   9  58 CALM      30.41R
BIG SPRING     CLEAR     25  17  70 CALM      30.44R
CARLSBAD       CLOUDY    19  12  74 N7        30.40S WCI  10
DRYDEN           N/A     35  17  47 W3        30.43R
FORT STOCKTON  CLEAR     29  18  63 SW9       30.44S WCI  20
GUAD PASS      CLOUDY    28   6  39 SW15      30.40R WCI  16
HOBBS          CLEAR     18  18 100 W7        30.40S WCI   8
MARFA          CLOUDY    17   6  62 N5        30.45R WCI  10
MIDLAND AIRPK  CLEAR     29  20  69 W7        30.42F WCI  22
MIDLAND INTL   CLEAR     26  17  68 NW5       30.41S WCI  20
ODESSA         CLEAR     26  17  68 W7        30.42S WCI  18
PECOS          CLOUDY    20  11  67 CALM      30.45F
PRESIDIO       FAIR      32   9  37 NW7       30.47R WCI  26
SEMINOLE       CLEAR     22  16  77 NW7       30.41S WCI  14
SNYDER           N/A     27  19  71 NW8       30.40S WCI  19
WINK           PTCLDY    21  13  71 E3        30.42F
$$
...OTHER STATIONS IN TEXAS...

CITY           SKY/WX    TMP DP  RH WIND       PRES   REMARKS
ABILENE        CLEAR     34  22  61 NW14      30.37R WCI  25
AMARILLO       CLOUDY    19  13  77 W9        30.36R WCI   8
AUSTIN         PTCLDY    46  25  43 W8        30.30R
BROWNSVILLE    CLEAR     52  49  89 NW7       30.36R
CORPUS CHRISTI PTCLDY    45  41  86 W8        30.35R
DALLAS FTW     PTCLDY    37  33  85 NW6       30.25R WCI  32
DEL RIO        CLEAR     38  22  52 NW8       30.45R WCI  32
EL PASO        CLEAR     24   6  46 N7        30.45R WCI  16
HOUSTON INT    MOCLDY    43  42  97 S3        30.30F
LUBBOCK        CLEAR     18  14  84 W8        30.38R WCI   8
SAN ANGELO     CLEAR     32  21  64 NW7       30.41R WCI  26
SAN ANTONIO    PTCLDY    41  27  57 NW9       30.35R WCI  35
WACO           CLEAR     36  27  69 W10       30.27R WCI  28
WICHITA FALLS  NOT AVBL
$$
...OTHER LOCATIONS IN NEW MEXICO...

CITY           SKY/WX    TMP DP  RH WIND       PRES   REMARKS
ALAMAGORDO     CLOUDY    16   0  48 N3        30.48R
ALBUQUERQUE    CLOUDY    27  12  53 N10       30.47S WCI  17
CANNON AFB     CLOUDY    17  11  78 W6        30.36R WCI   9
CLOVIS         CLOUDY    14   9  79 NW3       30.37R
HOLLOMAN AFB   CLOUDY    16   1  51 NE8       30.46R WCI   5
ROSWELL        CLOUDY    16   9  74 W3        30.40R
RUIDOSO          N/A     28  -2  26 NW15G23   30.38S WCI  17
SANTA FE       CLOUDY    17   6  62 N13       30.42S WCI   4
TRUTH OR CONSE CLEAR     20   3  48 W6        30.46S WCI  12
TUCUMCARI      CLOUDY    15   9  76 W7        30.35R WCI   5
$$

USA.gov is the U.S. government's official web portal to all federal, state and local government web resources and services.